Location: Bletchingley
(51.2333°N, 0.1000°W)
Time: 15:11:33
(UTC+00:00)

Cosmos 2266 Rocket - Pass Details

Date: 22 January 2021
Orbit: 934 x 1008 km, 82.9° (Epoch: 05 March)

Event Time Altitude Azimuth Distance (km) Brightness Sun altitude
Rises 06:37:59 0° 351° (N) 3,629 6.7 -11.2°
Reaches altitude 10° 06:40:32 10° 356° (N) 2,672 6.1 -10.9°
Maximum altitude 06:46:33 59° 75° (ENE) 1,076 4.6 -10.0°
Drops below altitude 10° 06:52:29 10° 155° (SSE) 2,639 7.0 -9.1°
Sets 06:54:59 0° 159° (SSE) 3,580 7.6 -8.7°
